Hourly Data Report for January 13, 2022

TERRACE A
BRITISH COLUMBIA
Current Station Operator: NAVCAN

54°28'07.000" N
128°34'42.000" W
217.30 m
1068134
71951
YXT

Download Data

Hourly Data (January 2022)
Hourly Data Report for January 13, 2022
TIME
LST
Temp Definition
°C
Dew Point Definition
°C
Rel Hum Definition
%
Precip. Amount Definition
mm

Wind Dir Definition
10's deg

Wind Spd Definition
km/h
Visibility Definition
km
Stn Press Definition
kPa
Hmdx Definition


Wind Chill Definition


Weather Definition


00:00 1.0 0.6 97 LegendMM 1 23 16.1 98.96     LegendNANA
01:00 0.9 0.6 98 LegendMM 36 16 8.1 98.99     Fog
02:00 0.8 0.5 98 LegendMM 1 13 8.1 99.05     Fog
03:00 -0.4 -0.6 99 LegendMM 34 13 6.4 99.17   -5 Fog
04:00 0.2 0.0 99 LegendMM 36 11 9.7 99.25     Fog
05:00 -0.5 -0.5 100 LegendMM 32 7 1.6 99.30   -3 Fog
06:00 -0.3 -0.3 100 LegendMM 31 4 6.4 99.32   -2 Fog
07:00 -0.5 -0.5 100 LegendMM 18 3 1.2 99.40   -1 Fog
08:00 0.0 0.0 100 LegendMM 5 8 12.9 99.44   -3 LegendNANA
09:00 -0.5 -0.5 100 LegendMM 1 5 8.1 99.52   -2 Fog
10:00 -0.7 -0.7 100 LegendMM 0 1 1.6 99.61   -1 Fog
11:00 0.4 0.4 100 LegendMM 36 7 11.3 99.71     LegendNANA
12:00 0.5 0.0 97 LegendMM 33 14 11.3 99.76     LegendNANA
13:00 0.9 0.2 95 LegendMM 33 16 11.3 99.78     Mostly Cloudy
14:00 0.9 0.1 94 LegendMM 34 10 16.1 99.81     LegendNANA
15:00 1.0 -0.1 93 LegendMM 34 10 16.1 99.80     LegendNANA
16:00 1.2 0.5 95 LegendMM 1 5 11.3 99.86     Cloudy
17:00 0.8 0.3 96 LegendMM 29 6 11.3 99.89     LegendNANA
18:00 0.9 0.5 98 LegendMM 34 6 8.1 99.89     Drizzle, Fog
19:00 0.5 0.2 98 LegendMM 28 3 4.8 99.90     Drizzle, Fog
20:00 0.2 0.2 100 LegendMM 20 3 4.8 99.89     Drizzle, Fog
21:00 0.2 0.2 100 LegendMM 22 3 4.8 99.88     Drizzle, Fog
22:00 0.1 0.1 100 LegendMM 0 1 4.8 99.87     Drizzle, Fog
23:00 0.1 0.1 100 LegendMM 0 1 2.4 99.85     Drizzle, Fog

Notes on Data Quality.

Legend

  • E = Estimated
  • M = Missing
  • NA = Not Available*
  • [empty] = Indicates an unobserved value
Date modified: